Tracking 29591 objects as of 19-Sep-2024
HD Live streaming from Space Station
objects crossing your sky now

APRIZESAT 1

Track APRIZESAT 1 now!
10-day predictions
APRIZESAT 1 is classified as:


NORAD ID: 28372
Int'l Code: 2004-025G
Perigee: 698.8 km
Apogee: 760.8 km
Inclination: 98.6 °
Period: 99.2 minutes
Semi major axis: 7100 km
RCS: 0.0588 m2 (small)
Launch date: June 29, 2004
Source: United States (US)
Launch site: TYURATAM MISSILE AND SPACE COMPLEX (TTMTR)

Uplink (MHz):
Downlink (MHz):
Beacon (MHz):
Mode:
Call sign:
Status: Unknown


Messaging services.
Your satellite tracking list
Your tracking list is empty




NASA's NSSDC Master Catalog

Two Line Element Set (TLE):
1 28372U 04025G   24262.46077293  .00001155  00000-0  30147-3 0  9997
2 28372  98.6018 245.7774 0043655 291.7657  67.8894 14.50909365 69540
Source of the keplerian elements: AFSPC